Simultaneous Nadir Overpasses (SNOs) Predictions

Prediction of SNOs between GOES-16 and LANDSAT-8 Satellite Orbit:

Table of predicted SNOs for the next 14.0 days since TLE Epoch: 5/18/2024
Index Date Time (GOES-16) GOES-16 Lat,Lon LANDSAT-8 Lat,Lon Distance(km) Time Diff (sec)
1 05/18/2024 15:23:53 0.05, -75.20 0.70, -78.35 356.91 80
2 05/20/2024 15:11:41 0.05, -75.22 0.07, -75.39 19.80 80
3 05/22/2024 15:02:08 0.05, -75.23 -0.53, -72.43 317.92 80
4 05/23/2024 03:23:32 -0.04, -75.23 -0.57, -77.63 272.38 80
5 05/25/2024 03:08:39 -0.04, -75.25 0.08, -74.67 65.59 80
6 05/27/2024 02:56:25 -0.03, -75.26 0.71, -71.71 403.94 80
7 05/27/2024 15:17:40 0.03, -75.27 0.37, -76.87 181.62 80
8 05/29/2024 15:08:05 0.02, -75.29 -0.24, -73.90 157.85 80
9 05/30/2024 03:29:29 -0.02, -75.30 -0.81, -79.10 431.68 80
10 05/31/2024 14:55:50 0.02, -75.32 -0.89, -70.94 498.36 80
